RH
12 12 12 12 12 12 13 14 15 17 18 17 18 18 18 18 17 18 18 18 19 18 20 21 21 22 20 18 17 15 16 19 20 20 21 22 22 22 22 20 18 15 15 17 12 12 14 14 15 13 17 19 27 35 25 30 49 53 50 46 42 48 47 46 53 54 54 57 62 63 58 54 45 44 44 43 56 59 50 48 52 53 47 38 34 34 33 35
14 13 13 13 13 14 15 16 17 18 17 18 18 18 18 18 17 17 17 18 19 19 20 21 22 22 22 24 21 15 15 18 20 21 21 21 21 21 20 18 16 15 16 17 14 14 17 20 18 17 26 28 28 31 27 29 41 57 64 49 41 48 46 45 49 50 54 58 63 64 54 48 45 45 45 41 50 58 48 45 54 58 52 40 33 32 32 36
15 15 15 15 15 16 17 17 17 17 17 18 17 18 18 17 17 17 17 18 18 19 19 20 22 21 23 26 24 18 14 18 22 22 21 20 21 20 18 16 14 14 16 17 17 14 16 21 15 20 32 32 33 31 28 36 41 50 62 54 44 48 49 43 45 51 55 59 61 59 52 49 48 46 44 47 53 52 51 50 46 48 55 55 44 31 34 39
15 16 16 16 17 16 16 16 16 17 17 18 17 18 17 16 17 17 18 18 17 19 18 19 20 20 24 24 24 18 14 26 27 21 21 20 21 19 16 15 13 14 16 15 16 16 16 16 18 35 41 37 50 43 32 41 39 42 54 55 47 49 53 46 47 57 58 57 56 56 52 47 49 52 50 51 52 50 60 62 50 50 59 64 53 37 38 39
15 15 15 15 15 15 15 16 16 17 17 17 18 17 16 16 17 17 18 17 17 18 17 19 18 21 23 21 22 15 20 38 29 18 21 21 19 18 17 15 13 14 15 13 15 16 15 16 31 56 53 42 56 49 33 38 41 45 49 50 51 48 50 49 52 56 55 54 54 55 50 46 47 52 59 57 55 59 63 64 62 62 57 56 54 45 43 40
15 14 14 13 14 14 15 16 17 17 17 17 17 16 16 16 17 17 17 17 19 19 21 22 18 20 21 19 20 15 26 36 23 18 21 20 19 17 17 14 13 15 13 14 14 14 17 22 34 58 62 48 49 45 39 40 45 51 47 49 53 47 46 49 51 51 51 52 53 52 44 50 50 45 63 65 62 71 65 60 66 61 49 47 51 50 48 43
15 14 14 14 15 16 16 17 17 17 16 16 15 15 16 16 17 17 17 18 18 20 22 24 21 19 19 18 19 20 30 29 18 20 21 20 18 16 18 15 15 15 13 14 13 18 26 25 29 52 65 50 41 43 43 42 47 53 48 50 50 47 48 48 50 52 51 48 50 53 42 48 52 42 57 61 59 72 65 55 53 46 46 52 55 52 47 43
15 15 15 16 16 17 17 16 16 16 15 15 15 16 16 16 17 17 18 18 17 18 19 22 22 20 21 20 21 27 29 24 19 21 21 20 17 15 18 17 16 14 14 16 16 23 29 30 34 49 54 42 40 43 42 42 48 56 50 47 47 48 52 52 55 54 50 50 49 50 43 47 58 50 50 55 54 62 58 47 46 46 50 56 56 51 44 41
16 16 16 16 16 16 15 15 15 15 14 15 16 16 16 16 16 17 17 17 17 18 17 19 20 20 21 21 24 29 25 20 20 22 23 20 17 16 17 17 15 13 17 21 20 20 28 38 40 42 42 40 44 46 48 46 43 51 51 48 47 47 49 48 51 51 48 49 48 45 43 48 58 53 48 52 50 54 54 46 49 51 49 54 56 48 40 38
15 15 15 15 14 14 14 15 15 15 15 15 16 16 16 16 17 17 17 18 17 17 18 18 17 18 18 20 25 27 22 19 20 22 24 20 16 16 16 18 15 14 19 22 22 21 28 35 32 33 37 43 52 53 54 50 43 51 56 53 52 47 46 47 45 48 48 44 46 46 46 52 56 52 49 49 49 54 52 43 47 50 49 52 53 47 38 38
14 13 14 14 15 16 16 17 17 16 17 15 16 15 15 16 16 17 17 17 16 16 17 17 17 18 17 20 26 26 19 18 21 22 23 20 17 18 19 19 17 16 19 24 25 22 25 26 27 36 36 37 48 53 51 48 47 51 52 51 55 51 42 45 45 43 44 41 46 49 47 53 55 53 54 51 52 55 49 45 49 54 56 53 50 49 40 40
14 14 15 16 16 17 17 18 18 19 19 16 15 14 15 17 17 19 18 16 16 16 16 17 18 17 18 21 23 22 18 20 22 21 23 22 21 22 21 20 18 17 17 25 28 24 25 22 27 42 44 41 47 48 43 51 57 54 56 52 53 59 47 39 44 45 41 39 50 50 47 56 56 51 53 55 57 55 51 51 52 57 63 58 51 48 41 42
15 16 15 16 15 14 14 15 17 19 20 18 15 14 15 16 17 19 18 17 17 17 18 19 19 17 21 26 21 18 19 21 20 21 24 22 22 22 20 19 18 19 17 24 30 27 27 22 23 39 51 55 52 41 40 56 62 51 57 62 56 63 58 41 40 46 40 43 54 47 51 67 61 51 48 53 57 51 50 55 54 60 68 65 56 49 43 44
15 15 15 15 14 12 11 13 16 18 20 18 15 14 14 15 17 17 17 17 16 19 21 20 21 19 23 25 18 18 21 20 19 21 22 21 22 22 20 20 18 20 18 23 29 25 25 22 24 39 50 57 48 39 54 72 71 58 54 68 76 62 53 53 50 47 40 49 56 40 53 67 53 51 50 51 57 50 51 59 61 62 69 70 63 53 47 45
16 15 15 14 13 11 10 13 16 17 19 18 15 15 16 16 17 17 18 18 19 21 19 17 18 20 28 24 16 20 21 19 20 21 21 22 23 22 23 22 20 22 21 24 26 24 24 21 30 42 44 54 54 52 69 74 74 79 59 58 83 67 48 60 60 54 44 46 52 41 57 67 50 54 55 50 57 55 54 60 64 65 68 71 66 56 49 48
16 15 14 13 11 9 11 14 15 17 19 17 16 16 16 17 17 18 18 16 19 19 17 17 16 21 31 25 17 20 20 20 23 22 21 22 22 24 24 21 23 22 20 23 23 25 24 28 45 50 47 58 68 74 81 76 75 89 76 58 67 59 47 55 56 66 63 47 48 46 58 62 49 55 61 56 55 58 60 60 65 67 68 69 65 58 52 51
15 14 14 12 9 8 11 14 15 17 18 17 16 15 15 16 16 18 18 17 18 15 15 17 16 23 28 21 19 23 22 20 23 24 22 21 21 22 21 22 25 21 21 24 21 26 31 42 55 51 60 73 80 90 82 73 72 74 77 67 61 57 53 56 54 65 68 54 53 54 57 55 45 50 58 58 54 59 62 58 63 66 66 68 66 63 55 54
13 13 12 9 7 10 12 13 14 15 15 16 16 15 15 15 15 17 19 19 19 18 20 20 21 30 30 22 23 24 21 20 22 24 23 22 21 21 22 24 25 20 30 36 29 39 46 53 58 52 67 71 72 89 71 55 57 52 58 55 54 59 56 60 60 61 59 55 61 64 64 58 49 50 52 56 58 59 59 56 62 66 65 67 68 66 57 56
10 9 8 6 7 11 12 11 13 13 14 15 14 15 14 14 15 17 17 19 25 28 28 29 30 34 31 24 24 22 20 22 22 23 23 24 22 22 22 25 32 32 46 49 36 51 59 58 67 63 67 66 63 75 62 54 58 57 63 55 49 54 58 68 71 72 62 50 58 63 64 62 53 50 50 56 60 58 59 59 63 68 68 69 70 69 61 58
8 6 5 6 7 10 11 10 12 12 12 13 14 14 16 26 28 28 31 29 32 33 30 34 33 31 29 25 24 22 20 22 23 25 24 23 23 23 27 38 47 45 57 54 35 52 63 61 73 65 61 67 66 71 68 67 71 70 71 68 64 57 56 62 64 75 67 48 61 71 71 70 57 50 47 53 60 59 60 61 63 67 67 68 69 71 68 61
7 6 6 5 6 9 9 9 12 15 16 14 13 13 26 44 36 28 39 37 31 30 27 29 28 26 24 23 25 23 23 22 21 26 24 23 26 25 34 55 53 40 58 68 51 56 63 60 64 58 59 65 69 81 77 70 73 69 63 63 67 62 59 58 59 77 71 50 67 80 70 62 52 49 47 52 60 58 56 56 60 64 68 69 69 72 72 65
7 7 7 5 5 8 8 9 12 18 24 20 16 18 30 39 26 19 32 33 25 25 25 24 25 27 24 22 24 24 27 27 25 25 23 28 32 29 39 56 51 40 59 77 59 50 56 54 53 60 69 67 73 86 77 71 74 67 64 59 54 57 64 64 62 77 74 54 67 81 68 53 49 51 53 57 60 57 57 54 56 62 65 66 66 69 71 65
6 8 7 5 5 5 7 9 10 16 21 19 17 21 25 24 22 22 26 28 23 23 27 26 27 30 26 23 23 25 30 32 33 28 24 36 45 48 54 56 58 54 55 64 51 40 47 45 53 74 73 60 66 76 75 74 67 60 64 55 51 57 54 54 60 71 74 61 64 75 67 59 58 55 56 66 67 61 65 64 64 69 64 61 66 69 69 63
7 8 6 6 5 5 8 7 8 13 14 16 18 21 24 22 25 24 27 35 26 19 25 24 26 28 25 24 22 28 35 34 37 30 24 38 48 55 58 57 68 66 56 61 54 47 47 40 59 82 76 65 59 63 75 71 59 67 73 56 55 61 50 53 62 65 71 69 66 67 62 66 72 61 53 68 75 65 68 71 67 71 69 68 74 73 70 64
7 6 6 7 4 5 8 6 10 12 14 19 19 23 26 23 25 22 36 54 32 15 24 22 21 23 21 21 21 31 40 33 33 30 26 34 42 48 53 58 64 57 56 65 55 48 47 47 62 67 68 74 62 55 64 61 59 71 73 57 50 53 53 63 67 65 72 65 56 58 58 66 76 65 51 66 79 69 69 74 69 70 71 72 75 71 70 68
7 7 7 7 5 6 7 9 14 13 17 22 21 27 25 22 25 16 35 64 38 14 23 19 17 21 19 21 28 38 41 31 25 27 28 29 35 43 47 56 57 48 59 69 55 46 46 57 71 63 57 63 61 57 55 63 73 64 57 59 59 58 56 61 60 56 61 52 48 64 62 58 64 57 55 71 81 75 72 73 72 73 71 70 71 69 71 70
9 8 7 7 7 6 8 13 13 12 16 18 21 26 20 20 24 15 35 60 37 14 20 22 18 18 18 23 33 37 28 26 26 24 28 26 31 40 42 51 52 47 64 71 52 41 42 55 71 69 59 56 59 57 52 65 69 51 55 68 65 57 51 60 59 49 58 54 54 76 67 57 67 59 62 73 69 70 70 65 68 71 68 66 66 68 72 72
10 9 7 7 6 5 10 12 11 17 22 19 18 20 18 21 20 25 44 43 25 17 18 23 18 15 25 28 35 42 32 32 30 21 26 25 25 39 44 52 55 48 59 68 48 35 43 48 55 61 59 57 52 48 53 61 55 51 66 72 62 58 61 70 64 58 75 61 50 75 63 55 73 63 64 70 57 63 68 62 66 68 65 63 62 66 71 76
10 9 7 7 6 8 12 10 11 20 23 18 16 18 20 17 16 39 56 32 16 18 18 22 16 21 42 37 38 49 37 35 35 27 33 27 22 38 45 53 65 52 50 67 55 37 44 48 54 59 54 52 48 54 69 61 51 60 70 72 72 77 80 75 66 67 78 62 54 71 58 53 72 66 65 61 45 56 65 63 69 71 69 66 64 64 67 78
10 10 8 7 9 10 11 12 13 16 18 17 17 20 18 22 40 58 49 21 13 19 23 24 20 36 57 43 39 49 38 40 51 46 44 35 30 44 45 48 68 62 52 65 59 45 53 58 62 60 49 50 50 62 78 66 56 65 73 75 70 74 80 80 86 80 65 63 68 69 57 56 68 65 65 55 39 46 53 57 66 69 69 66 66 68 71 81
11 11 11 10 11 13 11 13 14 14 17 16 17 22 19 33 65 60 26 13 18 26 30 28 33 56 66 46 35 44 48 52 56 56 52 45 44 51 47 41 58 71 66 61 52 46 51 50 52 58 57 59 52 51 66 72 69 69 75 69 49 53 60 61 85 83 57 57 67 72 68 62 64 62 59 58 55 57 56 54 56 57 60 60 63 69 76 85
13 12 12 11 12 15 12 13 16 14 16 18 21 34 36 36 45 37 27 26 20 26 32 27 40 59 61 52 41 43 52 50 53 62 61 60 60 55 54 48 46 53 52 49 51 49 45 45 47 52 54 54 51 49 56 68 68 63 71 66 53 63 59 51 77 82 62 55 58 70 68 57 61 57 49 52 56 61 65 62 57 55 56 56 58 65 76 88
16 15 14 14 13 14 13 14 16 14 19 24 32 51 57 41 24 21 38 37 18 28 37 34 51 60 51 46 42 45 44 36 45 54 51 63 69 59 62 63 52 46 41 42 51 49 47 54 49 39 40 47 54 51 46 55 59 55 65 64 58 71 66 64 79 69 55 57 58 63 62 57 58 50 52 57 51 56 67 67 65 64 63 60 60 68 79 88
16 16 15 17 17 15 17 16 16 20 22 26 41 57 47 29 20 23 37 39 32 42 45 46 58 52 41 37 40 48 39 28 43 51 50 61 65 60 64 63 58 61 58 47 45 46 44 42 37 32 36 45 52 49 44 50 52 58 73 64 56 64 58 57 70 59 54 68 66 55 53 61 55 43 55 64 60 68 74 77 81 79 78 76 75 79 82 86
16 15 14 17 19 20 22 17 17 21 19 26 49 55 33 21 27 31 37 41 42 41 37 50 52 32 36 52 52 48 32 25 42 50 52 56 52 53 56 54 59 64 58 41 35 47 46 35 44 55 49 44 45 52 62 57 46 59 74 61 53 65 63 61 71 71 70 81 85 72 62 65 55 43 57 70 70 72 73 80 83 75 75 80 81 81 79 82
16 15 17 19 19 22 24 22 23 22 23 36 47 41 33 33 31 34 42 38 36 34 26 41 46 23 29 49 52 48 34 29 40 39 40 48 46 49 53 55 61 59 53 47 40 43 40 35 55 67 54 49 49 52 61 54 43 53 61 56 57 66 74 70 64 73 78 74 75 71 62 59 52 49 63 72 64 59 65 73 73 69 72 77 78 74 75 82
17 16 20 23 21 20 21 25 26 22 28 43 43 30 31 36 34 47 57 41 39 49 38 33 34 22 25 32 35 47 40 28 35 35 31 37 36 42 56 58 54 54 58 56 45 40 39 42 59 60 43 51 63 58 59 62 58 54 50 59 64 60 70 72 62 76 86 74 68 67 65 63 55 56 64 62 51 47 56 65 68 71 71 70 70 67 72 81
17 19 21 22 21 18 20 24 24 25 33 46 51 41 35 39 48 62 65 48 47 55 43 29 23 24 33 28 22 40 43 28 35 41 31 28 31 38 53 53 49 63 72 62 48 46 47 45 56 61 48 56 67 55 51 62 63 57 52 57 58 49 59 66 62 68 68 68 75 75 76 72 63 67 60 44 42 41 44 57 68 69 63 61 64 64 71 80
18 24 23 20 20 18 18 19 22 33 38 43 52 47 40 51 64 70 66 55 50 43 33 30 29 29 36 32 23 33 42 30 32 40 28 23 32 34 42 47 45 64 79 68 56 55 51 38 42 58 56 52 54 47 50 57 57 62 62 60 59 58 64 65 64 68 64 70 80 76 73 63 61 81 65 33 36 38 38 53 61 62 61 60 62 64 71 79
20 25 19 15 18 18 16 14 25 44 44 45 56 50 45 54 63 72 77 68 54 35 28 37 37 28 32 36 28 31 46 44 36 36 29 30 35 29 41 53 45 54 73 68 58 60 56 39 39 57 58 45 42 47 56 61 65 71 65 63 66 65 67 64 62 73 76 79 89 87 77 53 44 65 56 31 34 38 41 53 55 60 63 60 61 66 72 80
30 35 21 14 17 17 20 24 43 67 63 55 58 51 51 55 55 70 86 82 65 44 38 46 41 33 35 34 27 33 50 53 47 41 34 34 29 22 46 69 58 52 58 53 51 55 53 46 48 58 52 38 41 55 62 65 75 77 62 61 68 64 63 57 59 80 85 80 88 89 78 55 40 49 46 35 39 42 49 60 60 61 62 58 59 65 75 81
38 38 18 13 14 14 25 40 64 86 78 60 54 52 62 64 51 59 75 73 63 55 50 48 46 48 47 37 37 49 51 45 44 38 30 32 29 27 60 89 82 67 55 50 55 58 58 57 57 57 48 36 42 61 72 71 73 69 57 61 69 69 68 57 61 83 82 74 85 89 81 59 47 57 55 45 51 56 63 71 68 59 55 55 58 66 79 82
33 20 9 13 15 18 30 42 58 74 68 57 54 57 66 66 54 55 64 60 54 53 51 47 44 43 42 43 48 50 41 36 38 32 31 42 44 53 85 102 93 77 60 52 56 58 59 56 49 50 51 47 49 61 71 70 62 56 59 71 72 71 76 73 76 83 76 77 88 95 92 62 44 68 76 66 72 74 72 74 66 55 49 53 61 70 79 78
36 17 19 18 6 15 35 40 45 56 58 51 49 55 58 59 61 58 54 57 57 51 47 50 48 39 43 56 54 42 34 29 27 30 38 45 53 76 101 101 91 78 62 60 60 49 46 46 43 43 43 43 52 61 62 59 56 53 63 79 77 74 82 82 78 75 71 77 78 86 93 59 36 60 69 62 66 61 56 56 52 48 47 51 62 72 77 77
34 20 34 31 10 22 48 58 59 61 61 50 39 47 48 45 61 68 55 58 67 59 47 46 51 53 57 61 52 48 48 32 20 31 42 42 54 87 105 97 94 90 79 88 90 62 44 45 42 36 32 31 37 44 44 44 50 55 63 75 74 72 73 68 68 71 72 77 74 76 78 47 25 37 38 38 46 41 40 45 45 49 53 59 69 75 78 78
33 24 44 56 41 41 56 72 78 68 60 51 33 36 43 34 47 69 65 54 60 66 57 47 50 52 52 54 50 52 59 48 34 37 42 41 48 77 100 99 98 98 93 101 102 77 58 57 52 45 41 35 28 29 34 38 40 40 49 65 73 74 71 68 77 81 78 84 80 67 60 44 32 34 32 32 37 33 35 38 39 45 53 64 76 79 81 80
44 30 40 51 44 49 60 68 78 67 50 44 29 25 42 39 33 47 55 54 64 73 63 52 52 41 33 41 43 46 60 61 51 45 44 49 51 62 89 101 96 97 98 98 98 79 56 54 60 59 52 44 37 36 39 43 42 36 41 57 71 80 77 69 72 72 68 73 67 54 58 60 48 39 35 34 32 32 35 36 37 43 51 63 75 80 83 82
43 30 36 39 29 41 49 45 63 68 52 53 48 37 46 47 31 30 39 49 64 67 48 40 48 45 41 41 29 30 46 46 45 49 47 52 55 50 64 85 94 100 94 84 84 70 47 50 64 63 59 55 51 50 50 50 52 51 52 54 60 75 80 68 62 63 62 57 47 45 57 60 47 37 35 34 34 36 38 38 43 50 57 67 77 82 81 79
36 31 39 44 35 42 49 46 64 72 57 57 54 40 45 41 25 31 40 38 44 53 43 28 30 48 64 60 34 28 39 30 23 39 45 45 52 47 41 52 75 94 86 69 72 65 50 64 77 69 63 58 50 50 56 60 61 59 58 58 56 64 73 69 61 60 60 56 47 46 53 52 43 39 38 35 35 40 44 48 54 57 61 71 79 83 82 79
28 24 33 50 51 56 65 61 64 62 51 50 39 32 52 49 27 35 47 32 20 33 44 33 32 61 82 71 42 30 41 36 16 26 40 37 46 57 46 39 56 78 74 66 73 61 42 63 86 74 62 60 54 53 59 64 67 61 52 52 57 62 67 70 68 65 66 67 60 56 61 61 47 40 43 42 43 52 56 55 56 57 63 75 81 84 84 82
25 22 36 57 51 46 56 57 59 54 41 43 38 30 44 50 39 39 44 45 38 34 43 44 44 64 75 68 56 47 55 57 36 35 49 42 44 56 44 37 55 71 68 65 71 59 40 59 83 68 54 60 60 58 61 59 58 58 50 43 51 68 75 73 72 71 68 64 62 62 65 57 42 40 48 48 48 55 55 51 52 56 65 77 80 80 82 82
30 21 38 64 49 38 53 55 55 49 29 35 49 40 39 53 60 46 29 48 70 59 54 60 56 54 54 52 58 62 68 72 59 59 73 68 64 66 55 53 66 75 74 68 69 70 57 57 67 59 55 66 64 59 58 47 37 43 49 46 48 64 76 72 67 70 65 55 53 55 49 37 34 41 45 41 40 43 45 47 50 54 63 73 79 80 80 80
Wind_Speed
4 5 5 6 6 7 7 7 7 6 5 4 3 3 3 4 5 7 8 8 7 7 7 6 7 8 9 8 7 3 2 13 25 29 23 17 23 23 20 15 11 10 8 8 6 5 8 10 8 8 8 9 6 4 5 5 4 5 4 5 4 3 4 5 7 6 5 7 7 5 3 7 6 2 1 1 5 3 1 3 3 4 6 8 8 9 8 6
7 7 7 8 8 8 8 7 6 5 5 4 3 3 3 5 6 8 8 8 7 6 6 5 6 8 11 10 7 2 5 9 22 24 22 22 24 21 15 12 9 8 8 9 9 7 8 5 6 9 8 4 4 5 4 4 5 4 3 5 3 5 3 3 7 6 4 8 7 5 4 6 7 5 2 2 2 2 1 4 4 5 8 7 7 6 5 4
7 8 8 8 8 7 7 6 5 5 4 4 3 3 4 6 7 8 8 8 7 6 5 5 7 11 14 12 5 5 8 6 17 16 22 24 21 18 12 9 7 6 8 9 11 12 11 6 8 9 6 4 4 5 5 5 4 3 4 5 1 5 1 1 6 5 4 8 9 6 4 4 5 3 2 4 3 1 3 5 3 4 7 7 7 6 4 4
7 7 7 7 7 6 5 5 5 5 4 3 3 3 5 7 8 8 8 7 6 6 5 6 8 12 14 8 1 7 7 6 9 13 23 23 19 15 10 8 6 7 8 9 12 14 12 11 14 10 6 5 5 4 6 4 2 3 3 3 3 5 4 2 3 5 5 7 8 7 4 4 4 1 2 6 4 2 5 6 6 6 7 6 8 7 4 4
6 6 6 6 5 5 5 5 5 4 3 2 2 4 6 8 9 8 8 7 7 6 6 7 7 14 15 9 5 5 4 5 7 17 24 20 16 12 9 8 6 6 6 9 10 9 9 10 11 8 6 5 6 5 4 5 3 5 3 2 2 4 4 0 2 6 6 6 6 7 6 3 2 1 3 7 5 4 6 6 8 8 8 7 8 5 4 4
5 5 5 5 4 5 5 5 4 3 2 2 4 6 8 8 7 7 8 7 8 6 7 4 6 16 22 20 17 12 8 3 10 20 22 17 13 10 9 8 5 6 4 8 7 7 8 9 9 6 4 4 6 5 2 6 4 5 2 4 4 3 6 3 3 6 6 8 6 6 4 1 2 1 3 6 6 7 7 6 7 8 11 9 6 3 1 2
4 4 5 5 5 5 5 4 3 2 2 4 6 7 7 7 7 8 9 11 12 10 8 3 7 12 17 20 25 21 10 2 14 20 17 14 10 7 9 9 6 5 6 10 10 7 6 10 9 4 5 5 5 5 3 5 7 7 3 4 5 5 6 4 4 5 5 7 6 4 3 2 4 3 1 3 8 8 7 6 7 11 10 6 2 2 3 3
5 5 6 6 5 5 4 2 1 2 4 5 6 6 6 6 7 10 14 17 19 20 17 9 6 8 6 8 12 13 7 8 19 19 13 11 9 7 7 8 6 7 10 12 10 8 7 9 7 4 5 4 3 3 3 8 9 6 4 2 3 4 4 5 5 5 5 4 2 5 3 5 6 3 1 5 9 7 7 8 8 9 4 0 2 4 5 4
6 5 5 5 4 3 1 1 2 3 4 5 4 4 5 6 9 12 13 15 17 21 22 18 10 3 2 3 2 6 7 14 18 16 13 10 9 9 7 9 9 11 13 10 5 6 4 3 3 4 7 4 5 3 3 6 4 2 4 3 5 4 3 5 5 4 4 2 2 5 3 6 3 1 2 7 9 5 5 5 3 3 1 0 1 5 5 4
5 5 4 3 1 1 2 3 3 3 3 3 4 5 7 8 10 10 9 12 15 17 19 22 21 15 9 3 3 8 9 14 16 15 15 11 9 11 10 10 10 11 12 10 7 7 7 9 9 10 10 5 5 4 4 5 3 3 7 6 7 5 2 3 4 2 0 0 1 5 5 6 3 2 4 8 8 3 3 3 2 2 2 2 1 5 5 3
4 3 2 2 3 4 4 5 4 4 4 5 6 7 8 8 8 7 9 14 17 17 17 17 18 19 17 9 9 8 9 13 15 16 17 16 16 16 13 10 11 18 21 18 16 18 20 19 16 11 6 3 5 7 6 4 5 5 8 8 7 6 4 4 4 2 1 1 2 4 3 6 4 1 6 8 5 2 2 4 5 3 4 3 2 4 4 4
5 5 7 9 10 10 10 9 8 8 8 8 8 7 8 8 7 6 8 13 15 16 17 16 14 11 10 11 11 6 9 15 14 16 22 23 24 22 19 17 18 22 25 18 11 14 14 11 14 10 2 4 5 6 4 2 5 5 7 7 6 7 4 1 1 1 1 1 3 4 2 6 3 7 10 7 3 2 2 5 6 4 4 4 3 4 3 4
10 12 13 13 11 10 10 9 8 9 8 8 8 8 8 7 6 5 6 7 7 7 7 8 11 10 6 6 9 11 13 17 16 17 23 25 28 27 24 23 23 24 24 21 13 11 12 16 25 15 3 7 4 3 5 3 5 4 5 5 3 6 3 5 2 1 0 1 3 4 3 6 7 12 12 7 3 2 2 5 6 5 4 4 3 3 3 4
14 15 12 9 9 10 10 9 8 8 9 9 8 8 9 8 6 4 3 2 0 2 4 5 4 6 8 5 7 16 16 17 20 19 20 23 28 29 27 27 27 27 29 28 23 21 25 32 32 14 3 6 4 5 6 5 5 3 3 3 3 3 3 6 2 2 2 1 4 4 2 7 9 11 11 7 4 5 5 7 6 5 4 4 4 4 4 4
14 11 7 7 8 9 9 9 9 9 11 9 8 10 10 9 7 5 4 2 1 2 5 9 8 4 6 4 7 16 18 18 19 18 16 19 24 24 25 29 29 29 30 27 25 25 29 33 23 8 3 5 6 7 5 4 4 4 2 3 3 2 3 7 3 5 4 2 3 3 3 7 9 10 9 5 4 6 7 7 6 6 5 5 4 4 4 4
10 6 3 5 8 8 8 10 11 12 15 12 10 11 11 10 10 12 12 9 8 5 3 8 10 7 5 2 6 13 15 15 15 14 13 15 19 18 19 23 23 24 25 22 21 23 26 24 11 4 6 5 6 6 3 4 4 3 3 2 2 2 0 4 3 2 3 1 1 4 3 6 7 7 7 3 4 6 6 7 7 6 5 5 4 4 4 4
6 3 2 5 7 5 7 12 13 15 18 19 16 10 9 8 7 7 6 7 10 9 8 9 6 6 6 4 5 7 9 10 12 13 12 11 12 10 9 12 10 13 15 15 17 15 14 11 3 2 6 4 3 4 4 4 3 4 3 1 2 1 1 2 4 3 2 2 3 4 5 9 10 8 8 6 4 6 7 8 7 6 5 5 4 4 5 4
5 4 6 6 4 3 7 11 13 16 19 24 26 21 18 17 12 9 6 2 2 4 7 11 7 5 5 7 4 5 9 8 11 14 11 10 11 9 8 7 4 3 5 9 12 9 7 5 3 3 4 4 4 5 4 1 3 2 0 2 0 2 2 3 3 2 1 1 4 3 5 13 15 11 8 7 6 7 9 8 6 6 6 5 5 4 5 5
7 7 7 5 1 5 7 8 9 12 13 17 22 22 22 22 23 24 22 13 5 3 3 7 5 5 1 4 6 7 7 6 8 14 12 7 9 11 13 11 5 4 4 4 6 6 3 4 5 4 3 4 3 2 5 4 4 4 3 4 3 2 3 5 5 4 2 1 6 6 7 11 13 13 10 8 6 7 9 7 5 6 5 5 5 4 5 5
6 6 5 3 2 5 6 5 5 10 11 10 10 8 8 9 12 12 14 14 7 5 6 1 1 5 2 2 6 7 7 10 11 15 17 8 1 5 10 10 6 7 6 1 3 4 3 6 5 2 4 6 4 4 5 2 3 4 3 4 3 3 3 4 3 4 0 0 6 5 5 10 12 14 11 7 4 6 8 8 7 7 5 6 5 5 6 6
5 4 4 3 4 5 3 3 3 6 11 12 11 3 2 3 6 2 2 6 5 6 8 2 2 7 4 1 8 8 3 12 16 18 21 11 1 4 7 7 7 7 4 2 2 3 5 8 3 4 6 5 2 3 4 4 4 3 3 3 1 3 4 4 2 4 3 0 5 2 5 12 12 12 10 4 3 7 9 9 9 8 7 6 6 6 6 5
5 5 4 3 5 5 3 2 5 7 9 11 11 4 4 8 12 10 5 5 4 6 6 4 5 6 3 3 11 10 2 8 14 17 21 14 6 5 3 6 8 4 5 3 2 3 7 7 4 6 4 2 4 4 5 5 5 3 1 2 1 2 3 4 3 4 4 0 4 5 6 12 13 10 9 5 6 7 7 9 9 8 8 7 7 7 5 5
5 5 3 2 5 6 4 1 5 9 10 12 14 11 11 13 15 11 5 6 2 5 4 6 6 5 6 6 12 11 5 6 5 11 19 13 6 4 3 6 7 3 6 6 3 2 5 4 4 2 2 6 6 5 6 4 4 3 2 2 2 3 2 3 3 5 3 1 3 5 5 9 10 8 7 5 5 6 5 6 7 6 8 8 7 6 6 7
5 4 2 2 5 6 5 4 4 7 11 15 17 16 16 14 11 7 3 4 2 3 3 2 3 3 4 4 12 8 3 3 2 7 16 10 3 3 4 3 5 5 3 5 7 8 4 3 1 4 6 7 4 4 6 5 3 2 2 4 2 4 2 4 3 5 4 1 2 4 5 6 5 5 7 5 3 5 4 3 6 6 7 7 6 6 7 7
5 4 2 3 6 7 7 5 5 9 13 14 14 14 15 11 8 5 3 5 4 4 3 1 1 4 3 5 14 6 3 3 1 4 11 8 3 1 3 2 4 4 2 2 8 9 3 3 1 5 6 7 5 4 3 2 1 3 2 4 3 3 3 4 4 4 4 4 3 5 4 4 5 5 7 5 6 6 4 3 6 7 6 7 7 8 8 7
4 3 2 4 7 9 8 4 6 12 11 7 9 13 11 7 5 3 3 5 4 4 5 4 2 7 6 7 11 3 4 4 2 6 10 8 4 3 3 3 2 2 4 3 5 4 2 4 4 5 5 5 4 2 1 4 3 3 2 3 4 4 1 2 4 3 2 2 3 4 3 4 6 6 7 5 6 8 6 5 7 7 7 8 8 8 8 7
3 1 2 3 7 10 6 3 8 10 5 4 10 11 7 4 3 2 3 6 4 2 4 4 2 6 6 7 9 2 3 5 2 9 12 10 6 3 5 3 2 2 2 3 4 1 1 6 8 6 4 3 3 2 0 5 4 2 1 3 5 4 2 1 3 2 1 3 2 3 3 2 5 6 6 4 6 8 7 8 8 7 9 10 9 9 9 7
4 3 3 3 6 8 3 4 11 7 2 8 11 8 5 4 3 2 5 5 3 1 1 3 3 5 6 7 10 6 1 4 2 6 11 12 8 3 4 2 3 1 1 5 3 2 1 3 4 3 3 3 2 1 1 4 1 4 1 3 3 3 4 4 3 1 1 2 3 4 1 1 5 7 5 4 4 7 8 8 9 8 10 10 9 10 10 7
6 5 6 6 6 7 4 6 9 6 6 11 10 5 5 4 3 4 6 3 2 2 1 2 4 5 7 8 8 6 3 4 3 6 9 10 9 6 4 2 6 3 1 6 5 3 0 1 3 3 3 2 3 4 4 4 2 2 3 3 4 4 4 4 3 2 2 3 3 5 1 1 5 7 5 4 3 6 7 7 8 8 9 9 9 10 9 6
8 7 7 7 7 8 7 7 7 9 11 11 8 5 5 4 5 6 5 1 1 2 1 2 3 4 7 7 6 7 6 4 3 6 6 5 7 7 4 2 5 5 4 6 4 2 2 1 3 2 2 1 2 3 3 4 2 2 4 4 4 4 3 3 2 3 4 3 5 6 1 3 3 6 4 2 3 5 6 7 7 7 8 8 8 9 8 6
11 8 5 4 5 6 6 6 9 12 11 10 8 5 4 3 5 7 3 1 1 2 3 3 3 5 8 5 4 6 5 5 6 6 6 5 7 8 4 2 3 5 5 6 4 4 4 3 1 2 1 1 2 2 0 1 2 4 3 3 3 3 4 3 4 5 3 4 6 4 1 4 2 6 5 6 6 6 6 7 8 8 8 8 8 8 7 5
16 13 9 6 5 5 6 8 11 12 10 10 7 4 5 3 4 3 1 3 2 2 2 1 3 5 5 3 4 5 4 5 5 5 4 3 5 5 4 2 1 4 5 3 4 5 2 1 3 3 1 2 3 2 2 3 3 4 3 5 4 3 4 3 4 3 1 5 3 1 1 1 5 8 9 10 10 8 8 8 9 9 9 9 9 8 6 4
20 17 16 14 10 8 10 11 12 11 9 8 5 5 7 5 2 1 3 2 1 2 1 0 3 3 2 3 4 5 2 2 4 4 2 2 4 4 3 1 1 2 1 1 2 4 3 4 5 3 2 1 4 3 2 3 4 5 2 3 3 2 3 3 4 3 4 5 3 1 1 3 5 7 9 10 10 9 7 8 9 9 9 10 10 8 6 4
21 20 20 19 15 11 9 9 9 9 7 5 5 6 7 4 1 2 2 3 1 3 2 1 4 3 2 3 3 4 1 1 3 4 3 3 4 3 4 4 3 3 2 2 2 2 2 4 3 0 2 2 3 3 3 2 2 2 3 4 2 3 2 2 3 2 4 6 5 3 1 3 3 5 8 9 8 7 6 7 6 7 9 9 9 9 8 7
18 20 22 22 19 13 6 5 6 6 5 5 6 6 6 2 3 2 2 4 1 2 2 1 3 4 3 3 3 1 1 1 3 4 4 4 2 1 3 4 4 3 3 2 1 0 1 4 5 3 2 2 2 1 3 5 2 0 2 3 1 3 4 1 3 4 2 4 4 3 3 5 4 8 8 4 6 6 4 5 4 7 9 6 7 9 8 7
12 16 20 23 22 16 6 1 4 5 5 6 8 5 2 4 2 2 3 1 1 1 1 3 3 4 3 4 4 3 1 1 3 3 3 2 1 1 1 2 2 2 3 3 1 1 2 5 5 3 2 2 2 2 2 2 1 1 1 1 2 2 5 3 1 0 3 1 4 2 4 5 4 8 8 5 6 7 6 6 5 7 8 6 7 8 7 6
6 8 12 20 24 19 9 2 4 6 5 7 7 3 2 2 1 1 1 1 1 2 4 1 1 2 1 3 4 5 3 2 2 2 1 1 1 2 1 2 1 0 1 2 1 1 1 4 5 0 1 1 1 2 3 2 2 3 0 3 2 2 4 3 0 4 4 0 4 3 4 6 4 4 7 7 6 9 7 7 7 7 7 7 7 8 7 7
1 3 6 17 26 20 10 3 5 6 6 8 6 2 1 1 0 1 1 1 1 3 5 2 1 1 2 1 2 5 4 2 3 3 1 1 0 3 2 1 1 0 1 2 1 1 2 2 6 1 3 3 2 3 3 4 3 3 2 2 2 1 0 1 1 1 2 2 5 5 5 5 3 4 6 6 7 9 8 7 6 7 7 7 8 8 8 7
0 1 3 15 26 18 8 3 4 6 8 6 3 1 1 1 1 1 0 1 1 3 3 3 1 1 2 2 1 3 3 1 1 2 1 0 1 2 2 1 1 1 2 2 2 1 2 1 5 3 2 3 4 2 1 2 2 3 2 1 1 2 4 1 0 2 1 2 3 4 6 5 6 6 5 8 10 9 8 7 6 7 7 7 7 7 7 6
0 1 1 16 25 13 5 7 7 8 7 4 3 2 1 0 1 1 2 2 0 1 0 3 2 1 2 3 1 1 2 1 2 1 0 0 0 1 1 1 2 0 2 3 3 1 2 2 4 5 3 2 2 2 4 4 2 1 1 1 2 1 1 0 0 2 3 1 2 2 4 7 7 4 6 10 11 8 7 7 7 7 7 8 8 7 7 6
3 3 2 20 22 5 4 11 10 6 4 3 2 1 2 1 1 2 3 3 1 0 0 3 3 2 2 1 1 2 1 1 1 1 1 1 1 1 1 1 3 1 1 2 2 1 1 2 3 4 4 2 4 4 3 5 5 4 3 3 3 2 1 0 3 2 1 2 4 2 3 10 8 3 6 9 8 7 7 6 7 8 8 9 8 7 7 6
6 4 6 21 15 3 8 8 4 3 4 3 2 1 1 2 2 1 2 2 2 0 1 2 2 1 2 1 0 2 1 0 1 0 1 3 2 2 1 1 2 2 2 1 1 2 2 3 0 4 5 5 4 1 2 4 4 4 2 2 3 3 4 4 3 4 1 1 1 3 1 10 7 4 5 6 6 7 6 5 7 8 8 8 8 8 7 6
4 2 7 20 9 5 10 7 2 5 4 0 1 1 1 2 2 1 1 1 1 0 2 1 0 1 1 0 1 2 2 2 2 1 2 3 3 2 1 2 1 1 2 1 1 1 1 2 1 5 5 5 4 3 3 2 3 2 1 2 3 2 3 5 5 3 2 2 1 2 2 9 7 2 4 5 4 5 6 6 7 8 8 8 8 8 7 6
2 3 6 20 11 4 6 5 2 3 2 1 2 2 2 1 2 1 0 1 0 1 1 0 1 1 1 1 2 1 1 1 2 1 1 3 2 1 2 2 2 1 1 0 0 0 1 0 1 4 6 7 7 5 5 4 1 2 3 1 2 3 6 3 2 2 2 5 6 4 4 9 7 1 1 4 5 7 7 7 7 7 8 8 7 7 7 6
4 1 4 17 21 12 5 4 6 5 2 1 3 2 3 1 1 0 2 1 1 2 1 0 1 1 1 2 2 1 0 0 1 1 1 2 3 2 2 2 2 0 0 2 1 1 2 2 2 1 2 4 5 5 4 3 2 2 2 2 3 4 7 3 1 3 3 4 6 6 6 10 12 10 8 8 7 8 9 8 7 7 8 8 7 7 7 6
3 3 3 9 14 12 4 1 4 6 4 3 3 1 1 1 1 1 2 1 1 2 1 1 1 1 2 2 1 1 2 1 0 1 1 3 3 2 1 1 2 1 0 2 2 2 2 1 3 5 6 6 7 8 4 0 2 5 5 4 5 5 6 5 4 3 5 3 3 8 11 12 19 19 15 13 10 10 10 9 8 8 7 7 7 7 7 6
3 3 1 3 4 5 5 4 5 4 2 3 2 0 1 0 2 1 1 1 1 1 1 1 1 1 1 1 0 2 2 1 1 0 2 3 3 2 0 2 2 2 2 2 1 3 4 3 4 6 9 10 9 10 6 2 4 10 8 6 7 6 6 7 6 7 5 4 5 10 9 9 16 18 15 15 14 12 12 12 11 9 8 7 7 7 7 7
4 2 2 1 1 2 3 4 4 5 4 3 3 1 0 1 1 1 1 1 1 0 1 0 1 3 4 3 1 0 2 2 1 2 1 2 2 2 1 1 1 2 2 1 1 3 4 4 4 4 7 11 10 11 9 5 6 8 9 9 8 7 10 12 14 9 8 6 11 10 5 8 14 18 18 17 14 12 13 13 11 10 9 8 7 7 8 8
4 3 1 2 2 3 1 2 3 6 5 3 3 1 1 1 1 2 1 1 2 1 1 1 4 3 4 4 3 1 2 1 2 4 2 2 2 1 1 1 1 0 0 1 1 1 4 3 3 2 5 11 12 10 7 6 6 7 10 11 10 10 13 15 14 9 8 12 17 15 14 16 17 18 19 19 14 11 11 10 10 11 10 9 8 8 8 8
3 2 0 3 4 2 2 3 3 4 3 3 2 1 2 4 3 3 1 2 1 2 1 2 4 2 2 4 4 3 6 6 4 5 4 2 2 2 3 2 2 1 1 2 0 1 2 3 1 2 3 9 10 7 3 5 6 9 13 12 9 9 10 11 10 6 6 12 17 15 15 17 18 15 14 15 12 8 8 10 10 10 10 8 8 9 9 9
4 3 3 5 3 4 3 3 3 3 3 3 1 1 2 5 6 3 2 3 3 3 4 5 3 1 2 2 4 7 8 8 7 7 7 4 3 3 3 2 4 4 1 1 1 1 2 2 1 4 3 7 6 5 5 5 5 9 16 14 8 7 6 7 6 6 8 9 10 8 8 12 13 9 7 10 10 8 10 12 11 9 8 8 9 10 9 9
4 1 2 5 3 3 2 2 3 3 2 3 1 0 2 3 2 2 1 2 2 3 5 7 6 3 1 2 6 8 6 5 5 4 4 3 1 2 1 1 5 6 5 4 1 1 4 2 1 2 2 7 5 5 6 7 7 7 10 8 7 7 5 4 4 8 11 8 4 6 8 10 9 7 9 13 13 11 11 10 9 9 9 8 9 10 10 10
Wind_Direction
120 115 113 109 109 109 113 115 117 120 114 111 94 82 56 41 31 23 22 14 11 8 12 14 13 5 342 311 292 279 80 35 34 38 39 12 359 359 349 339 333 350 10 22 49 90 71 58 50 61 65 49 22 343 24 29 33 57 69 83 115 162 188 182 168 188 162 149 182 203 184 131 142 206 190 39 25 33 325 302 289 306 272 236 249 275 292 301
110 110 109 108 110 112 115 118 120 118 113 111 92 83 47 37 22 17 15 8 13 8 15 26 22 14 352 325 300 227 168 39 34 33 21 5 1 358 345 337 336 357 26 40 55 77 76 37 21 54 53 35 1 358 19 11 35 73 96 84 133 190 193 169 160 180 162 152 165 176 177 139 152 179 138 132 311 6 13 284 309 320 289 274 274 277 289 313
106 105 106 109 112 115 119 120 118 116 112 109 94 69 41 28 16 14 8 9 12 5 9 358 0 360 346 329 300 182 176 46 33 16 3 1 1 1 358 348 349 24 38 52 71 79 86 78 65 68 56 46 13 8 30 12 27 75 97 83 198 196 114 60 157 167 164 148 146 159 176 145 169 194 141 159 173 145 208 238 261 276 271 281 284 278 309 358
105 107 111 114 118 120 121 118 115 117 114 108 86 50 32 16 12 11 8 15 6 360 349 331 0 4 350 346 81 167 175 57 27 345 353 359 1 7 17 15 25 44 40 74 93 87 84 73 66 66 66 52 353 14 37 355 27 63 73 114 190 164 89 13 159 143 130 135 142 148 143 153 195 218 151 157 143 245 246 230 212 220 238 253 274 293 353 49
111 112 115 116 119 118 116 119 119 122 116 91 50 27 17 12 13 12 12 11 356 347 326 327 28 33 28 44 87 145 131 63 341 340 353 355 4 17 31 39 46 38 43 95 104 87 72 57 57 54 59 48 349 26 28 335 65 74 29 105 149 138 112 358 138 128 122 108 116 132 146 172 179 115 159 161 161 225 236 221 209 214 229 239 266 306 19 69
116 115 116 116 116 117 119 125 124 118 94 43 30 16 14 15 15 17 17 12 4 352 327 329 81 66 60 66 72 81 94 80 322 341 352 354 13 28 35 42 47 40 73 121 106 78 61 45 52 48 58 54 20 45 4 329 57 92 38 29 33 86 124 158 130 126 125 116 133 155 166 132 92 190 188 167 192 223 227 217 214 236 247 252 273 305 25 92
122 119 117 118 118 125 129 130 125 95 46 23 17 12 18 22 28 40 46 50 45 39 25 33 134 103 77 68 64 65 85 45 340 347 352 1 24 31 38 43 46 74 124 117 96 90 74 62 76 82 78 71 47 59 46 26 53 83 81 24 32 66 105 135 125 123 124 131 168 159 126 140 150 178 157 201 236 241 254 268 262 261 260 263 272 183 169 129
125 124 125 128 133 137 137 127 86 33 18 10 12 18 31 42 62 78 77 69 60 55 51 60 142 154 93 56 59 62 60 350 349 356 1 14 38 34 47 59 67 118 114 92 97 114 89 75 103 124 80 69 83 78 54 55 46 65 98 80 63 57 78 102 100 112 121 121 150 116 134 215 184 165 147 237 253 250 269 289 277 266 266 223 172 155 154 140
131 136 139 139 142 134 117 50 12 5 1 7 23 39 58 78 98 100 89 73 60 56 53 57 75 145 70 10 71 72 9 348 359 9 15 31 56 49 69 88 97 118 100 76 95 115 93 92 142 136 117 112 87 48 357 62 50 78 105 105 97 82 81 93 92 105 122 128 131 129 212 256 231 285 259 240 246 251 283 290 272 284 351 6 164 151 152 145
143 149 145 145 138 48 4 358 353 359 11 38 61 69 83 104 115 110 89 68 59 57 54 56 61 66 65 358 62 68 349 354 21 21 28 53 73 61 71 91 106 109 90 68 63 87 109 130 127 114 115 107 72 22 357 85 120 114 97 88 84 94 81 70 105 130 17 102 145 158 216 273 305 325 266 250 243 242 298 269 254 329 318 293 141 159 166 143
150 148 127 96 73 65 59 57 62 70 78 86 81 86 102 117 127 121 93 78 72 68 61 58 59 63 64 52 73 71 351 13 37 33 48 69 69 62 67 90 109 103 94 77 74 98 109 121 124 110 97 89 85 55 31 80 107 99 100 79 38 52 62 54 107 178 314 125 165 153 211 290 330 284 238 241 238 187 205 243 260 300 302 286 187 178 173 135
122 110 101 95 88 81 77 75 76 79 84 87 90 103 114 123 133 129 105 93 89 79 68 59 53 47 56 57 63 56 10 35 53 53 60 71 73 72 74 83 90 94 98 86 78 105 106 121 111 87 86 125 105 79 68 68 83 85 87 79 22 28 48 304 151 224 322 189 174 130 304 294 249 232 240 237 217 125 173 241 258 270 292 286 222 193 172 137
115 114 110 101 87 72 65 64 67 74 82 88 97 111 122 132 132 133 123 110 102 80 56 47 44 30 41 68 46 36 34 49 73 75 66 73 80 80 80 83 81 80 86 82 77 93 95 104 99 89 101 104 96 124 115 63 64 73 50 73 58 23 344 253 253 12 344 200 151 111 312 277 244 242 249 251 208 145 233 252 250 257 284 284 242 207 189 156
128 125 115 91 64 51 48 60 74 79 87 89 98 112 124 128 124 143 147 140 191 27 20 16 17 17 40 82 45 36 43 65 79 72 65 77 82 79 78 82 82 79 82 81 79 87 93 95 93 90 79 81 101 110 77 30 36 61 33 30 69 73 277 274 278 135 165 201 117 101 278 266 269 263 255 249 193 176 231 252 249 252 272 277 256 219 207 179
138 130 105 63 41 37 47 74 85 86 92 94 106 117 123 123 124 128 104 98 92 67 71 55 49 51 53 64 39 37 50 65 62 54 62 81 81 77 76 79 80 82 84 82 80 82 86 85 80 77 68 39 64 78 47 18 23 42 74 326 349 115 269 299 275 163 183 258 92 125 250 271 274 271 262 241 172 182 225 251 256 249 261 269 259 229 210 184
147 136 84 34 23 32 60 88 95 94 93 96 113 127 127 120 116 105 89 83 80 77 81 44 43 74 86 31 8 31 44 42 36 50 72 83 86 85 80 83 82 83 84 77 78 77 72 74 68 55 75 39 50 78 55 38 7 354 96 203 280 113 23 311 284 198 177 168 151 186 233 283 272 272 290 280 185 195 226 252 257 247 253 260 251 233 214 188
166 175 328 348 4 37 90 100 102 98 92 92 101 120 130 123 136 128 92 78 77 76 68 38 30 79 65 8 6 13 8 10 27 54 71 71 87 102 88 83 76 81 84 63 57 54 44 53 57 37 62 57 62 81 63 36 320 316 41 131 234 178 153 291 286 297 83 123 226 212 229 261 266 277 300 296 225 208 232 246 252 244 241 255 253 239 224 206
215 256 292 316 351 97 126 123 115 105 96 92 92 95 98 96 97 89 73 113 89 61 52 21 16 79 33 360 356 319 321 347 28 46 63 69 73 85 70 59 46 51 62 38 32 26 16 27 56 70 38 29 39 62 90 175 223 234 261 108 327 256 226 253 261 263 122 174 239 217 246 260 271 279 279 277 241 216 233 239 247 246 235 253 260 245 231 218
249 270 284 303 40 120 131 144 146 135 121 105 96 93 90 83 78 68 59 66 58 43 65 357 11 109 92 329 321 320 345 7 29 32 38 53 67 70 52 39 40 44 38 19 12 12 30 36 40 53 2 342 356 92 146 192 173 167 187 137 153 226 244 242 247 254 200 234 255 228 247 267 280 285 280 277 251 223 242 251 255 249 240 253 262 254 234 227
261 275 275 278 158 143 126 128 165 183 182 164 142 105 89 76 62 47 37 53 64 81 106 321 8 91 78 315 332 344 27 46 43 25 18 7 13 51 29 19 32 52 51 33 357 359 57 70 55 41 274 280 277 219 183 165 126 124 108 110 176 216 271 264 263 292 208 183 266 237 257 276 277 279 281 285 270 245 247 250 250 242 240 245 249 258 235 233
276 286 274 248 192 181 160 91 88 181 195 194 190 155 146 148 84 108 312 57 51 58 88 89 71 77 71 32 7 359 27 45 36 19 15 11 347 30 6 10 45 42 1 314 346 353 56 73 41 297 254 243 258 195 159 111 96 100 122 136 225 225 254 270 262 310 1 86 270 318 321 286 277 278 283 286 250 247 237 232 241 233 235 245 243 255 246 245
289 300 289 251 211 204 204 54 70 127 159 180 184 151 142 144 126 144 148 90 34 27 85 72 49 54 42 51 21 11 52 41 24 9 12 16 27 50 15 33 65 49 337 3 22 359 47 59 341 299 253 145 55 67 100 99 93 74 89 132 253 250 273 293 306 334 2 357 278 353 346 293 287 286 281 260 224 244 241 228 232 221 226 244 241 248 250 247
296 302 296 245 205 201 208 141 98 111 127 153 153 133 132 134 138 149 111 95 67 9 48 47 46 19 10 36 11 10 57 48 22 352 1 12 29 64 88 55 63 50 11 40 84 86 61 23 327 323 88 78 42 36 74 80 72 61 62 94 265 293 348 298 305 337 333 248 276 330 331 289 295 306 292 273 237 262 281 245 234 215 218 233 238 242 238 234
294 296 291 225 189 189 200 186 148 126 131 143 138 135 144 146 153 159 88 85 67 16 37 49 93 45 20 9 354 5 82 50 74 345 357 23 57 50 84 91 74 51 27 62 76 87 89 287 298 76 62 70 62 24 57 67 16 326 165 136 241 291 280 242 287 330 323 332 332 347 337 292 310 325 292 306 308 282 311 290 251 237 234 247 263 259 239 231
293 285 264 196 180 180 183 173 154 148 145 140 138 146 150 153 168 161 85 62 22 341 8 22 91 29 3 347 352 0 120 35 74 338 358 37 59 29 62 106 89 44 271 93 68 78 72 300 60 70 39 53 68 34 49 112 347 316 244 202 209 215 239 281 337 3 12 1 349 27 17 294 310 302 268 305 337 300 313 301 251 250 257 260 264 259 248 241
306 277 223 185 178 172 169 154 140 145 144 143 156 161 156 162 182 164 93 65 33 326 353 6 24 7 349 345 345 348 94 14 346 23 22 32 29 113 77 347 56 70 212 145 74 92 32 357 50 76 62 46 38 14 161 138 84 360 289 201 154 127 138 340 9 42 48 309 315 62 104 261 309 302 269 296 314 294 299 284 257 256 259 254 250 253 252 243
348 330 152 164 171 168 171 169 156 152 145 170 169 164 163 172 166 128 68 47 22 321 352 337 340 5 344 339 347 65 91 317 331 35 26 19 2 91 77 2 24 27 218 108 57 66 349 7 28 46 71 67 28 353 154 122 92 335 307 121 118 105 130 117 65 75 259 271 318 41 119 224 293 277 265 294 304 301 302 280 265 254 249 251 251 252 253 241
46 88 108 113 153 169 182 161 161 160 152 169 166 163 168 161 145 97 77 66 350 340 32 308 321 352 333 348 14 72 128 310 45 3 358 24 18 38 72 87 151 255 285 100 97 253 351 11 11 38 63 65 61 312 194 129 59 289 230 121 118 123 141 128 99 143 299 357 317 315 36 228 277 273 294 337 314 299 295 278 271 256 246 250 253 255 256 245
69 94 96 96 130 150 142 145 158 157 147 156 159 158 154 132 107 59 71 102 318 349 160 313 340 334 340 0 14 37 12 7 69 318 339 33 28 34 75 170 151 149 331 95 133 210 106 244 202 132 68 18 269 252 179 149 295 271 138 73 51 72 86 86 95 136 34 26 272 268 336 53 278 281 308 350 317 276 276 276 269 256 253 254 256 262 263 248
71 94 103 103 118 127 125 124 132 140 143 147 151 148 130 96 71 56 49 102 313 320 257 13 356 333 9 22 357 6 24 5 343 337 356 26 3 24 78 178 115 97 8 40 87 220 309 274 200 129 69 229 265 267 176 177 222 117 82 33 32 33 37 60 70 82 58 344 261 243 156 94 296 283 262 251 268 250 255 280 280 273 276 268 259 263 262 249
68 80 96 111 126 132 127 117 126 139 139 137 140 122 87 50 62 86 77 272 255 320 6 27 352 7 30 44 358 352 17 349 338 13 22 5 359 12 35 25 53 55 11 11 16 332 345 15 248 279 268 98 30 355 134 131 125 107 80 52 44 336 5 27 353 38 70 277 262 239 158 112 218 270 251 244 262 239 227 258 271 270 275 273 268 263 257 246
66 68 70 80 116 132 124 130 139 139 136 139 132 83 73 38 27 92 264 319 328 312 24 5 323 20 18 24 19 343 341 349 3 52 45 21 34 19 22 41 39 24 7 332 335 343 356 335 314 315 286 77 54 20 346 356 36 57 52 60 48 345 5 8 330 7 222 250 251 207 316 177 225 251 255 264 272 251 221 228 241 249 258 268 271 270 266 241
68 67 67 68 80 98 109 131 141 136 139 142 112 54 77 77 33 205 265 324 8 320 43 38 325 8 352 8 13 333 338 358 359 47 83 104 68 23 347 3 138 50 2 282 355 358 338 310 331 354 303 43 85 89 357 322 360 26 60 74 60 62 35 322 285 327 287 269 279 289 293 275 276 269 242 240 255 249 233 233 237 245 255 265 273 282 284 250
69 65 63 61 63 74 98 130 144 141 141 123 82 49 64 76 188 197 271 263 268 349 34 59 342 358 35 44 344 314 42 17 347 29 22 38 53 11 333 335 11 74 101 83 59 47 22 306 300 357 289 16 77 117 136 144 32 24 145 114 97 146 134 263 243 251 286 289 293 308 275 213 260 276 228 218 251 261 250 248 250 258 259 265 279 286 281 258
68 59 53 49 46 47 74 139 154 155 141 92 67 60 79 146 221 184 227 246 249 1 359 28 31 30 5 353 323 314 112 305 358 42 27 38 78 25 350 321 339 54 91 73 321 101 79 260 262 284 286 71 85 178 117 104 89 190 156 97 57 179 146 164 208 193 232 313 298 279 241 213 229 274 268 265 288 284 275 270 274 274 273 281 285 278 272 259
68 53 44 37 30 25 30 135 169 165 141 86 65 60 123 190 199 176 195 197 108 142 348 351 38 55 341 320 335 2 31 312 7 44 29 48 160 218 304 266 299 32 100 110 197 36 38 278 285 327 328 80 149 198 94 86 132 92 92 170 239 164 116 105 265 311 71 18 285 285 274 285 319 296 299 347 324 305 315 303 282 273 283 297 285 275 274 264
64 50 44 28 17 12 15 39 153 145 112 78 79 102 201 192 150 175 204 65 100 116 93 34 343 54 310 302 317 322 333 324 1 42 39 11 177 182 237 261 242 216 170 138 193 186 133 280 292 311 185 292 174 136 46 19 120 89 133 223 214 99 85 95 12 349 34 220 275 307 279 292 342 308 312 343 312 292 294 290 288 287 290 292 281 280 279 266
38 52 55 20 7 3 12 50 137 120 81 70 79 133 183 93 77 209 156 101 112 76 88 138 221 103 194 224 300 299 328 353 358 34 74 316 190 152 160 263 200 295 317 57 75 121 118 290 297 252 169 307 5 91 1 343 59 87 185 182 108 113 251 21 66 337 349 293 285 303 291 276 222 235 287 304 284 283 287 287 292 287 283 286 285 288 287 277
263 31 51 5 358 359 13 62 124 81 63 77 93 139 142 70 331 250 251 50 121 92 93 192 184 84 183 179 232 286 342 39 30 40 98 356 351 157 149 199 211 313 328 59 118 181 105 113 286 278 210 315 1 89 235 296 40 44 44 29 25 161 175 199 133 169 221 271 280 313 323 291 231 211 237 272 277 281 284 285 280 272 276 285 286 289 289 275
47 60 38 351 353 356 39 62 68 55 58 101 159 152 71 208 265 325 350 3 75 105 70 195 165 101 203 215 231 256 8 79 145 85 164 224 292 220 174 166 185 245 348 42 100 159 68 121 252 295 325 323 314 223 198 183 158 83 60 319 295 246 172 231 320 141 146 186 235 310 316 281 260 207 209 258 275 272 261 261 270 276 282 286 283 282 279 266
46 78 329 343 349 343 87 54 48 49 77 91 114 112 42 115 153 354 354 18 39 248 183 162 157 140 177 203 263 210 29 35 149 120 254 234 188 241 299 146 165 153 46 62 96 173 124 155 222 295 328 290 248 242 191 169 160 147 175 200 191 188 152 77 301 301 114 157 187 162 287 277 268 181 203 245 261 264 250 238 263 286 284 282 285 277 267 259
53 84 321 343 354 97 79 54 35 45 90 75 40 100 28 69 104 11 346 25 40 333 30 101 139 129 149 134 154 179 149 46 195 164 221 221 207 212 278 67 124 124 112 137 261 232 147 107 171 270 269 263 266 284 115 153 146 128 166 180 140 139 128 136 229 267 258 207 183 118 264 271 256 174 199 235 244 261 258 234 261 285 283 280 286 285 274 259
61 136 337 353 355 140 69 55 346 23 58 218 341 100 11 57 110 38 354 16 23 354 6 9 211 50 139 182 95 155 194 202 191 188 217 235 240 228 294 18 48 101 105 148 265 253 108 86 12 286 284 311 331 17 57 74 102 112 231 156 142 159 136 153 182 187 214 229 162 86 268 267 267 207 210 247 266 278 273 254 261 279 289 287 286 287 283 266
103 185 348 9 20 142 85 80 127 41 25 278 49 34 342 65 115 57 308 296 329 147 80 357 213 46 68 88 82 145 213 229 212 229 199 214 239 335 24 360 350 92 120 196 157 186 281 174 63 340 332 340 347 359 355 347 76 209 247 199 162 126 100 116 152 109 269 226 165 148 250 261 270 287 257 288 302 297 282 267 265 276 287 289 286 283 279 267
67 153 309 14 36 65 95 144 142 125 153 108 70 33 358 49 100 117 163 175 193 173 143 338 216 124 85 67 61 79 26 356 257 319 23 228 256 346 30 344 333 82 254 324 339 280 247 208 131 83 323 305 306 305 298 286 257 229 223 218 210 150 134 160 145 112 242 233 162 169 236 267 282 294 300 299 293 290 286 278 273 271 270 273 276 276 270 257
72 55 312 351 27 53 76 119 99 109 145 132 92 29 55 99 264 240 153 156 189 169 155 260 191 110 76 75 50 309 284 302 15 355 287 242 267 323 42 30 33 65 327 321 337 63 87 252 211 182 201 223 242 255 252 79 301 274 254 225 211 184 153 131 113 172 202 183 192 223 236 269 286 290 296 300 297 296 297 295 290 282 269 265 264 265 263 249
96 71 7 317 355 28 36 20 42 74 133 130 107 222 177 202 302 319 148 189 177 158 162 146 145 164 181 147 113 262 266 329 24 282 232 237 267 303 96 122 85 26 347 304 289 91 89 285 247 200 226 241 244 261 283 3 277 264 260 236 208 193 157 154 197 213 158 116 261 247 218 239 273 280 287 294 297 302 303 300 299 293 281 274 266 263 264 254
77 134 198 167 43 44 32 12 51 67 56 82 99 65 358 346 317 227 221 307 46 167 182 41 286 223 197 174 138 218 297 337 314 245 236 254 279 341 7 148 109 6 357 359 323 111 126 259 244 191 255 268 258 263 271 267 260 257 252 243 226 198 176 195 224 213 153 191 251 256 226 238 266 279 284 287 289 294 294 293 295 294 287 284 279 268 261 255
70 106 277 18 95 159 139 4 89 81 51 62 85 50 129 146 266 245 207 52 1 315 125 262 280 255 202 182 139 164 242 260 286 265 222 200 243 312 318 243 171 304 171 109 326 148 151 245 245 179 284 284 273 268 253 234 258 272 255 238 225 213 201 213 234 219 190 233 254 267 276 273 271 273 277 283 286 284 285 288 289 288 286 284 278 267 258 254
87 127 200 47 58 83 37 7 68 83 39 39 71 72 153 172 231 268 224 148 259 308 120 223 266 261 188 173 150 208 223 185 204 241 190 167 263 223 214 219 155 112 24 118 245 248 189 255 238 106 313 284 280 293 265 204 233 271 275 260 228 217 218 226 242 230 212 246 258 267 278 278 272 268 268 275 282 285 284 283 279 275 276 277 272 264 257 256
89 151 142 100 53 1 14 12 43 77 32 8 75 149 195 203 206 217 238 199 192 204 189 192 210 146 103 163 206 245 238 190 199 222 183 174 254 213 215 228 142 134 157 176 174 150 183 266 359 53 345 277 276 330 327 293 281 278 281 275 237 200 207 219 223 200 194 224 255 271 273 267 269 277 277 272 277 282 276 276 278 274 269 265 263 263 257 254
70 108 77 101 82 351 26 27 18 58 40 339 350 164 283 274 240 200 260 264 205 212 202 180 164 150 173 245 242 250 241 185 198 223 176 162 194 160 172 153 136 141 162 170 178 177 158 163 30 56 309 271 285 337 324 322 330 294 268 249 201 190 214 238 240 217 202 196 220 243 247 261 280 303 300 291 291 286 273 266 271 276 275 265 256 257 256 254